EW8829 Weather Reports


Display with metric or nautical units.
time (UTC)temp
F
wind
direction
speed
MPH
gust
MPH
rain 1hr
in
rain 24hr
in
rain mn
in
humidity
%
barometer
mb
20260904065154 68 304 0.0 0.0 0.00 0.17 0.17 99 1011.7
20260904064653 68 296 0.0 1.0 0.00 0.17 0.17 99 1011.6
20260904064149 68 309 0.0 0.0 0.00 0.17 0.17 99 1011.5
20260904063644 67 50 0.0 0.0 0.00 0.17 0.17 99 1011.4
20260904063140 68 37 0.0 0.0 0.00 0.17 0.17 99 1011.7
20260904062636 68 35 0.0 2.0 0.00 0.17 0.17 99 1011.6
20260904062132 68 15 1.0 1.0 0.00 0.17 0.17 99 1011.7
20260904061627 68 321 0.0 1.0 0.00 0.17 0.17 99 1011.6
20260904061123 68 50 0.0 0.0 0.00 0.17 0.17 99 1011.5
20260904060620 68 89 0.0 1.0 0.00 0.17 0.17 99 1011.6
20260904060115 68 66 0.0 1.0 0.00 0.17 0.17 99 1011.9
20260904055610 68 62 1.0 1.0 0.00 0.17 0.17 99 1011.7
20260904055105 68 41 1.0 2.0 0.00 0.17 0.17 99 1011.9
20260904054601 69 16 1.0 2.0 0.00 0.17 0.17 99 1011.9
20260904054056 69 0 0.0 1.0 0.00 0.17 0.17 99 1011.7
20260904053556 69 76 0.0 1.0 0.00 0.17 0.17 99 1012.0
20260904053051 69 52 0.0 2.0 0.00 0.17 0.17 99 1011.8
20260904052548 69 32 0.0 1.0 0.00 0.17 0.17 99 1011.8
20260904052044 69 304 0.0 2.0 0.00 0.17 0.17 99 1011.9
20260904051540 70 37 0.0 1.0 0.00 0.17 0.17 99 1011.8
20260904051039 70 50 0.0 2.0 0.00 0.17 0.17 99 1012.2
20260904050535 70 21 1.0 2.0 0.00 0.17 0.17 99 1012.2
20260904050031 70 322 0.0 0.0 0.02 0.17 0.17 99 1012.1
20260904045526 70 358 1.0 2.0 0.00 0.16 0.16 99 1012.2
20260904045021 70 126 1.0 3.0 0.00 0.16 0.16 99 1012.2
20260904044517 70 343 0.0 0.0 0.00 0.16 0.16 99 1012.4
20260904044013 70 29 0.0 2.0 0.00 0.16 0.16 99 1012.4
20260904043509 70 33 1.0 2.0 0.02 0.16 0.16 99 1012.3
20260904043004 70 18 2.0 2.0 0.17 0.16 0.16 99 1012.4
20260904042500 70 249 0.0 2.0 0.47 0.16 0.16 99 1012.2
20260904041949 70 76 2.0 2.0 0.45 0.12 0.12 99 1012.4
20260904041446 70 75 2.0 2.0 0.21 0.07 0.07 99 1012.3
20260904040941 71 29 1.0 2.0 0.28 0.05 0.05 99 1012.6
20260904040441 71 135 0.0 2.0 0.66 0.03 0.03 99 1012.5
20260904035937 70 87 1.0 4.0 0.57 0.41 0.41 99 1012.1
20260904035433 70 15 0.0 1.0 0.21 0.33 0.33 99 1012.7
20260904034932 71 118 2.0 2.0 0.26 0.32 0.32 99 1012.1
20260904034427 70 278 1.0 1.0 0.21 0.29 0.29 99 1012.4
20260904033923 70 336 0.0 2.0 0.19 0.27 0.27 99 1012.4
20260904033419 70 62 0.0 2.0 0.12 0.26 0.26 99 1012.2
20260904032915 70 50 0.0 0.0 0.07 0.24 0.24 99 1012.4
20260904032410 70 66 0.0 0.0 0.07 0.24 0.24 99 1012.2
20260904031904 70 62 0.0 1.0 0.02 0.22 0.22 99 1012.1
20260904031400 70 318 2.0 2.0 0.07 0.22 0.22 99 1012.1
20260904030856 70 352 0.0 0.0 0.12 0.22 0.22 99 1012.0
20260904030351 70 19 0.0 0.0 0.09 0.21 0.21 99 1012.2
20260904025847 70 359 2.0 2.0 0.09 0.20 0.20 99 1012.2
20260904025342 70 62 0.0 1.0 0.05 0.19 0.19 99 1012.2
20260904024842 70 15 1.0 2.0 0.00 0.18 0.18 99 1012.2
20260904024337 70 0 1.0 2.0 0.00 0.18 0.18 99 1012.0
20260904023834 70 30 1.0 2.0 0.00 0.18 0.18 99 1011.9
20260904023330 70 44 1.0 2.0 0.00 0.18 0.18 99 1011.9
20260904022828 70 15 2.0 2.0 0.00 0.18 0.18 99 1012.0
20260904022326 70 89 0.0 0.0 0.00 0.18 0.18 99 1012.2
20260904021822 70 15 0.0 0.0 0.00 0.18 0.18 99 1012.1
20260904021322 71 346 0.0 1.0 0.00 0.18 0.18 99 1012.3
20260904020817 71 309 0.0 1.0 0.00 0.18 0.18 99 1012.5
20260904020312 70 311 2.0 2.0 0.00 0.18 0.18 99 1012.7
20260904015810 71 7 1.0 1.0 0.00 0.18 0.18 99 1012.6
20260904015307 70 89 0.0 0.0 0.00 0.18 0.18 99 1012.6
20260904014805 71 89 0.0 0.0 0.00 0.18 0.18 99 1012.5
20260904014300 71 321 0.0 0.0 0.00 0.18 0.18 99 1012.7
20260904013756 70 282 0.0 1.0 0.00 0.18 0.18 99 1012.5
20260904013252 70 26 1.0 2.0 0.00 0.18 0.18 99 1012.7
20260904012747 70 89 2.0 2.0 0.00 0.18 0.18 99 1012.6
20260904012247 71 43 0.0 1.0 0.00 0.18 0.18 99 1012.6
20260904011746 71 28 1.0 1.0 0.00 0.18 0.18 99 1012.6
20260904011241 71 80 1.0 1.0 0.00 0.18 0.18 99 1012.7
20260904010736 71 49 0.0 0.0 0.00 0.18 0.18 99 1012.9
20260904010233 71 129 0.0 0.0 0.00 0.18 0.18 99 1012.7
20260904005727 71 44 0.0 0.0 0.00 0.18 0.18 99 1012.8
20260904005223 71 44 0.0 2.0 0.00 0.18 0.18 99 1012.6
20260904004718 71 34 1.0 2.0 0.00 0.18 0.18 99 1012.7
20260904004214 71 34 1.0 1.0 0.00 0.18 0.18 99 1012.5
20260904003708 71 72 1.0 2.0 0.00 0.18 0.18 99 1012.6
20260904003205 71 50 0.0 0.0 0.00 0.18 0.18 99 1012.5
20260904002700 72 50 0.0 0.0 0.00 0.18 0.18 99 1012.5
20260904002155 72 297 0.0 0.0 0.00 0.18 0.18 99 1012.2
20260904001645 72 22 0.0 1.0 0.00 0.18 0.18 99 1012.4
20260904001144 72 50 0.0 1.0 0.00 0.18 0.18 99 1012.3
20260904000639 72 59 1.0 1.0 0.00 0.18 0.18 99 1012.5
20260904000135 72 315 0.0 0.0 0.00 0.18 0.18 99 1012.3
20260903235634 72 315 0.0 2.0 0.00 0.18 0.18 99 1012.4
20260903235130 73 322 1.0 2.0 0.00 0.18 0.18 99 1012.2
20260903234625 73 37 0.0 0.0 0.00 0.18 0.18 99 1012.2
20260903234121 73 37 0.0 0.0 0.00 0.18 0.18 99 1012.3
20260903233617 73 6 0.0 0.0 0.00 0.18 0.18 99 1012.5
20260903233113 73 50 0.0 0.0 0.00 0.18 0.18 98 1012.5
20260903232607 74 50 0.0 0.0 0.00 0.18 0.18 98 1012.6
20260903232103 74 309 0.0 1.0 0.00 0.18 0.18 98 1012.6
20260903231556 74 299 0.0 1.0 0.00 0.18 0.18 98 1012.5
20260903231051 75 343 0.0 1.0 0.00 0.18 0.18 98 1012.6
20260903230548 75 321 0.0 0.0 0.00 0.18 0.18 98 1012.5
20260903230045 75 322 0.0 2.0 0.00 0.18 0.18 98 1012.5
20260903225537 75 322 1.0 1.0 0.00 0.18 0.18 98 1012.3
20260903225033 75 315 1.0 2.0 0.00 0.18 0.18 97 1012.3
20260903224530 75 315 0.0 0.0 0.00 0.18 0.18 97 1012.2
20260903224025 75 300 0.0 1.0 0.00 0.18 0.18 97 1012.1
20260903223524 76 309 0.0 0.0 0.00 0.18 0.18 96 1012.1
20260903223024 76 303 1.0 2.0 0.00 0.18 0.18 95 1012.0
20260903222520 76 308 1.0 2.0 0.00 0.18 0.18 95 1012.0
20260903222018 76 295 2.0 2.0 0.00 0.18 0.18 94 1012.3
20260903221514 76 295 1.0 2.0 0.00 0.18 0.18 94 1011.9
20260903221011 77 302 2.0 2.0 0.00 0.18 0.18 93 1011.8
20260903220510 77 287 2.0 3.0 0.00 0.18 0.18 93 1011.7
20260903220010 77 315 1.0 2.0 0.00 0.18 0.18 93 1011.6
20260903215505 78 295 2.0 2.0 0.00 0.18 0.18 92 1011.7
20260903215003 78 304 2.0 3.0 0.00 0.18 0.18 91 1011.7
20260903214459 80 293 1.0 1.0 0.00 0.18 0.18 86 1011.8
20260903213958 81 320 1.0 1.0 0.00 0.18 0.18 85 1011.8
20260903213454 80 25 0.0 1.0 0.00 0.18 0.18 80 1011.7
20260903212950 81 296 0.0 1.0 0.00 0.18 0.18 80 1011.9
20260903212445 81 340 1.0 2.0 0.00 0.18 0.18 78 1011.9
20260903211940 80 343 1.0 4.0 0.00 0.18 0.18 82 1012.0
20260903211435 82 349 1.0 3.0 0.00 0.18 0.18 78 1011.7
20260903210932 83 255 2.0 2.0 0.00 0.18 0.18 77 1011.9
20260903210431 83 314 2.0 2.0 0.00 0.18 0.18 79 1012.1
20260903205927 83 296 1.0 2.0 0.00 0.18 0.18 79 1012.0
20260903205426 83 350 0.0 2.0 0.00 0.18 0.18 77 1012.2
20260903204920 83 170 2.0 2.0 0.00 0.18 0.18 74 1012.2
20260903204417 83 0 1.0 3.0 0.00 0.18 0.18 74 1012.2
20260903203913 84 236 0.0 4.0 0.00 0.18 0.18 72 1012.2
20260903203408 84 330 2.0 3.0 0.00 0.18 0.18 76 1012.2
20260903202907 82 343 0.0 2.0 0.00 0.18 0.18 77 1012.3
20260903202404 82 282 3.0 4.0 0.00 0.18 0.18 77 1012.4
20260903201903 82 313 2.0 6.0 0.00 0.18 0.18 76 1012.2
20260903201359 83 284 9.0 11.0 0.00 0.18 0.18 75 1012.5
20260903200858 83 214 6.0 6.0 0.00 0.18 0.18 73 1012.5
20260903200353 83 224 5.0 6.0 0.00 0.18 0.18 72 1012.4
20260903195848 84 235 2.0 4.0 0.00 0.18 0.18 74 1012.5
20260903195344 83 272 2.0 5.0 0.00 0.18 0.18 72 1012.5
20260903194838 82 325 2.0 4.0 0.00 0.18 0.18 77 1012.4
20260903194334 83 32 0.0 2.0 0.00 0.18 0.18 75 1012.2
20260903193830 82 211 3.0 5.0 0.00 0.18 0.18 74 1012.5
20260903193326 83 336 2.0 5.0 0.00 0.18 0.18 75 1012.0
20260903192821 82 143 2.0 2.0 0.00 0.18 0.18 76 1012.5
20260903192316 82 254 4.0 8.0 0.00 0.18 0.18 74 1012.5
20260903191813 82 56 0.0 2.0 0.00 0.18 0.18 78 1012.6
20260903191308 81 247 4.0 7.0 0.00 0.18 0.18 78 1012.7
20260903190807 82 252 3.0 4.0 0.00 0.18 0.18 75 1012.6
20260903190303 83 248 2.0 4.0 0.00 0.18 0.18 75 1012.6
20260903185757 81 271 3.0 8.0 0.00 0.18 0.18 77 1012.9
20260903185256 80 236 2.0 2.0 0.00 0.18 0.18 78 1012.8
20260903184753 80 333 0.0 3.0 0.00 0.18 0.18 81 1013.2
20260903184249 79 19 1.0 1.0 0.00 0.18 0.18 82 1012.9
20260903183744 79 339 0.0 2.0 0.00 0.18 0.18 84 1012.9
20260903183238 79 323 2.0 4.0 0.00 0.18 0.18 80 1012.8
20260903182737 80 8 2.0 2.0 0.00 0.18 0.18 81 1012.9
20260903182232 80 272 3.0 5.0 0.00 0.18 0.18 78 1013.3
20260903181731 80 257 2.0 3.0 0.00 0.18 0.18 80 1013.3
20260903181226 80 154 0.0 4.0 0.00 0.18 0.18 79 1013.2
20260903180722 80 215 4.0 6.0 0.00 0.18 0.18 79 1013.0
20260903180221 81 21 0.0 3.0 0.00 0.18 0.18 79 1013.1
20260903175721 81 216 1.0 3.0 0.00 0.18 0.18 79 1013.3
20260903175214 80 341 1.0 5.0 0.00 0.18 0.18 79 1013.4
20260903174714 80 264 3.0 6.0 0.00 0.18 0.18 80 1013.3
20260903174209 81 298 0.0 2.0 0.00 0.18 0.18 78 1013.0
20260903173709 80 277 3.0 4.0 0.00 0.18 0.18 78 1013.3
20260903173206 79 99 0.0 2.0 0.00 0.18 0.18 80 1013.3
20260903172701 79 351 2.0 6.0 0.00 0.18 0.18 80 1013.5
20260903172156 79 359 1.0 3.0 0.00 0.18 0.18 80 1013.3
20260903171655 79 336 2.0 4.0 0.00 0.18 0.18 79 1013.6
20260903171147 80 347 1.0 3.0 0.00 0.18 0.18 80 1013.3
20260903170645 81 257 6.0 8.0 0.00 0.18 0.18 76 1013.4
20260903170141 81 317 2.0 3.0 0.00 0.18 0.18 82 1013.3
20260903165638 81 168 0.0 1.0 0.00 0.18 0.18 77 1013.5
20260903165133 80 338 2.0 7.0 0.00 0.18 0.18 79 1013.4
20260903164627 80 266 4.0 5.0 0.00 0.18 0.18 79 1013.6
20260903164124 79 320 3.0 3.0 0.00 0.18 0.18 81 1013.6
20260903163619 79 87 2.0 6.0 0.00 0.18 0.18 82 1013.6
20260903163115 81 246 2.0 3.0 0.00 0.18 0.18 79 1013.7
20260903162611 79 83 2.0 3.0 0.00 0.18 0.18 84 1013.6
20260903162107 79 349 4.0 4.0 0.00 0.18 0.18 83 1013.7
20260903161602 78 27 2.0 3.0 0.00 0.18 0.18 84 1013.7
20260903161057 77 245 1.0 4.0 0.00 0.18 0.18 84 1014.0
20260903160556 78 156 0.0 2.0 0.00 0.18 0.18 84 1013.9
20260903160051 77 253 4.0 6.0 0.00 0.18 0.18 85 1013.8
20260903155550 77 343 0.0 2.0 0.00 0.18 0.18 87 1013.9
20260903155046 76 2 0.0 4.0 0.00 0.18 0.18 86 1014.2
20260903154542 75 2 2.0 3.0 0.00 0.18 0.18 89 1014.3
20260903154038 76 48 1.0 2.0 0.00 0.18 0.18 88 1014.2
20260903153533 76 4 2.0 3.0 0.00 0.18 0.18 90 1014.5
20260903153029 76 264 0.0 2.0 0.00 0.18 0.18 88 1014.4
20260903152525 75 289 1.0 2.0 0.00 0.18 0.18 89 1014.5
20260903152021 74 240 1.0 3.0 0.00 0.18 0.18 89 1014.5
20260903151519 74 228 3.0 5.0 0.00 0.18 0.18 88 1014.5
20260903151014 74 25 0.0 3.0 0.00 0.18 0.18 91 1014.3
20260903150509 73 285 2.0 5.0 0.00 0.18 0.18 91 1014.5
20260903150004 73 201 1.0 2.0 0.00 0.18 0.18 91 1014.6
20260903145459 72 6 0.0 3.0 0.00 0.18 0.18 92 1014.5
20260903144954 72 140 1.0 2.0 0.00 0.18 0.18 93 1014.3
20260903144453 72 210 2.0 4.0 0.00 0.18 0.18 92 1014.4
20260903143949 72 220 4.0 4.0 0.00 0.18 0.18 92 1014.5
20260903143446 73 185 1.0 3.0 0.00 0.18 0.18 93 1014.4
20260903142941 72 290 0.0 3.0 0.00 0.18 0.18 93 1014.5
20260903142436 72 219 0.0 2.0 0.00 0.18 0.18 93 1014.4
20260903141932 72 185 1.0 3.0 0.00 0.18 0.18 94 1014.3
20260903141428 71 110 1.0 3.0 0.00 0.18 0.18 94 1014.5
20260903140924 71 269 4.0 6.0 0.00 0.18 0.18 94 1014.5
20260903140419 71 235 2.0 2.0 0.00 0.18 0.18 94 1014.2
20260903135914 71 171 0.0 2.0 0.00 0.18 0.18 95 1014.4
20260903135410 71 301 0.0 3.0 0.00 0.18 0.18 95 1014.5
20260903134908 71 144 2.0 2.0 0.00 0.18 0.18 96 1014.4
20260903134403 71 156 0.0 2.0 0.00 0.18 0.18 95 1014.4
20260903133901 72 263 1.0 3.0 0.00 0.18 0.18 94 1014.2
20260903133357 72 251 2.0 6.0 0.00 0.18 0.18 94 1014.2
20260903132857 72 223 5.0 5.0 0.00 0.18 0.18 95 1014.2
20260903132353 72 215 0.0 0.0 0.00 0.18 0.18 96 1014.2
20260903131852 71 238 2.0 4.0 0.00 0.18 0.18 95 1014.0
20260903131347 71 194 1.0 2.0 0.00 0.18 0.18 99 1014.2
20260903130846 71 138 0.0 2.0 0.00 0.18 0.18 99 1014.4
20260903130341 70 172 1.0 2.0 0.00 0.18 0.18 99 1014.3
20260903125839 69 157 2.0 2.0 0.00 0.18 0.18 99 1014.4
20260903125335 69 220 0.0 2.0 0.00 0.18 0.18 99 1014.4
20260903124834 69 156 0.0 2.0 0.00 0.18 0.18 99 1014.5
20260903124330 68 165 1.0 2.0 0.00 0.18 0.18 99 1014.2
20260903123828 67 181 1.0 1.0 0.00 0.18 0.18 99 1014.6
20260903123323 68 230 0.0 2.0 0.00 0.18 0.18 99 1014.9
20260903122821 68 230 0.0 1.0 0.00 0.18 0.18 99 1014.5
20260903122317 67 304 0.0 1.0 0.00 0.18 0.18 99 1014.5
20260903121814 67 269 0.0 0.0 0.00 0.18 0.18 99 1014.4
20260903121311 67 299 0.0 0.0 0.00 0.18 0.18 99 1014.4
20260903120806 67 269 0.0 0.0 0.00 0.18 0.18 99 1014.1
20260903120300 67 293 0.0 1.0 0.00 0.18 0.18 99 1014.1
20260903115758 67 89 0.0 0.0 0.00 0.18 0.18 99 1014.1
20260903115254 67 89 0.0 1.0 0.00 0.18 0.18 99 1014.1
20260903114748 66 269 0.0 1.0 0.00 0.18 0.18 99 1014.1
20260903114244 66 313 0.0 1.0 0.00 0.18 0.18 99 1014.2
20260903113739 65 89 0.0 1.0 0.00 0.18 0.18 99 1014.1
20260903113235 64 199 0.0 1.0 0.00 0.18 0.18 99 1014.2
20260903112731 64 283 0.0 1.0 0.00 0.18 0.18 99 1014.1
20260903112226 64 319 1.0 2.0 0.00 0.18 0.18 99 1013.9
20260903111725 64 330 2.0 2.0 0.00 0.18 0.18 99 1013.8
20260903111220 64 294 0.0 1.0 0.00 0.18 0.18 99 1013.9
20260903110716 64 330 0.0 1.0 0.00 0.18 0.18 99 1013.8
20260903110212 64 280 0.0 1.0 0.00 0.18 0.18 99 1013.6
20260903105711 64 269 0.0 1.0 0.00 0.18 0.18 99 1013.7
20260903105207 64 283 0.0 1.0 0.00 0.18 0.18 99 1013.6
20260903104706 64 302 1.0 1.0 0.00 0.18 0.18 99 1013.9
20260903104202 64 309 0.0 2.0 0.00 0.18 0.18 99 1013.8
20260903103657 64 321 1.0 2.0 0.00 0.18 0.18 99 1013.9
20260903103154 64 300 1.0 2.0 0.00 0.18 0.18 99 1013.9
20260903102653 64 29 0.0 2.0 0.00 0.18 0.18 99 1013.6
20260903102148 64 332 2.0 2.0 0.00 0.18 0.18 99 1013.9
20260903101647 64 322 0.0 1.0 0.00 0.18 0.18 99 1013.7
20260903101143 65 294 1.0 1.0 0.00 0.18 0.18 99 1013.9
20260903100638 65 335 1.0 2.0 0.00 0.18 0.18 99 1013.9
20260903100137 65 299 0.0 1.0 0.00 0.18 0.18 99 1013.9
20260903095634 65 352 0.0 2.0 0.00 0.18 0.18 99 1013.9
20260903095129 65 335 1.0 2.0 0.00 0.18 0.18 99 1013.8
20260903094624 65 301 0.0 0.0 0.00 0.18 0.18 99 1014.2
20260903094119 65 309 0.0 2.0 0.00 0.18 0.18 99 1014.0
20260903093614 65 287 2.0 2.0 0.02 0.18 0.18 99 1013.8
20260903093110 65 239 2.0 2.0 0.00 0.18 0.18 99 1014.1
20260903092609 65 299 0.0 1.0 0.00 0.18 0.18 99 1014.2
20260903092104 65 329 1.0 2.0 0.00 0.18 0.18 99 1014.4
20260903091602 65 38 0.0 1.0 0.33 0.18 0.18 99 1014.0
20260903091057 65 82 0.0 2.0 0.40 0.18 0.18 99 1014.2
20260903090553 65 248 2.0 2.0 0.02 0.12 0.12 99 1014.4
20260903090051 65 45 1.0 2.0 0.00 0.11 0.11 99 1014.3
20260903085550 65 287 0.0 2.0 0.00 0.11 0.11 99 1014.0
20260903085046 65 250 2.0 2.0 0.00 0.11 0.11 99 1014.0
20260903084544 65 287 2.0 2.0 0.00 0.11 0.11 99 1013.9
20260903084039 65 318 2.0 3.0 0.00 0.11 0.11 99 1013.9
20260903083535 65 301 2.0 2.0 0.00 0.11 0.11 99 1013.8
20260903083034 65 348 2.0 2.0 0.00 0.11 0.11 99 1013.5
20260903082528 65 352 0.0 0.0 0.00 0.11 0.11 99 1013.9
20260903082024 65 64 0.0 1.0 0.00 0.11 0.11 99 1014.2
20260903081519 65 351 0.0 2.0 0.00 0.11 0.11 99 1014.2
20260903081015 65 147 0.0 1.0 0.00 0.11 0.11 99 1014.0
20260903080511 65 345 0.0 0.0 0.00 0.11 0.11 99 1014.0
20260903080008 65 309 0.0 2.0 0.00 0.11 0.11 99 1013.9
20260903075502 65 188 0.0 0.0 0.00 0.11 0.11 99 1013.9
20260903074957 65 157 0.0 1.0 0.00 0.11 0.11 99 1013.8
20260903074456 65 0 0.0 1.0 0.00 0.11 0.11 99 1014.3
20260903073952 65 283 0.0 2.0 0.00 0.11 0.11 99 1014.1
20260903073447 65 230 1.0 2.0 0.00 0.11 0.11 99 1014.2
20260903072942 65 293 0.0 0.0 0.00 0.11 0.11 99 1014.3
20260903072438 65 66 0.0 1.0 0.00 0.11 0.11 99 1014.2
20260903071935 65 68 0.0 1.0 0.00 0.11 0.11 99 1014.1
20260903071431 65 16 1.0 2.0 0.00 0.11 0.11 99 1013.9
20260903070926 65 58 1.0 2.0 0.00 0.11 0.11 99 1014.0
20260903070425 65 18 2.0 2.0 0.00 0.11 0.11 99 1013.9
20260903065920 65 14 1.0 2.0 0.00 0.11 0.11 99 1014.0